This demonstration page uses our WeatherBlox Daily Observations layout. Learn more.

Left ArrowRight Arrow

Hourly Observations for October 11, 2015

Temp ( °F °C ) Dew Point ( °F °C ) Humidity (%) Winds ( mph kmh ) Pressure ( in mb ) Visibility ( mi km ) Precip ( " mm )
12:15 am 00:15 Clear 64 17.5 54 12 70 70 SSW 5 7 29.80 1009 10 16 N/A
12:35 am 00:35 Clear 64 17.7 54 12.1 70 70 SW 3 6 29.80 1009 10 16 N/A
12:55 am 00:55 Clear 64 17.5 53 11.7 69 69 SSW 3 6 29.80 1009 10 16 N/A
1:15 am 01:15 Clear 64 17.5 53 11.6 69 69 SW 5 7 29.77 1008 10 16 N/A
1:35 am 01:35 Clear 64 17.7 53 11.7 68 68 SSW 7 11 29.77 1008 10 16 N/A
1:55 am 01:55 Clear 62 16.7 53 11.4 71 71 SSW 3 6 29.77 1008 10 16 N/A
2:15 am 02:15 Clear 62 16.5 52 10.9 70 70 Calm 29.77 1008 10 16 N/A
2:35 am 02:35 Clear 61 16.3 51 10.7 70 70 Calm 29.77 1008 10 16 N/A
2:55 am 02:55 Clear 60 15.4 50 9.8 69 69 Calm 29.77 1008 10 16 N/A
3:15 am 03:15 Clear 55 12.8 51 10.3 85 85 W 3 6 29.80 1009 10 16 N/A
3:35 am 03:35 Clear 53 11.7 49 9.3 85 85 WNW 3 6 29.80 1009 10 16 N/A
3:55 am 03:55 Clear 51 10.4 47 8.4 88 88 Calm 29.80 1009 10 16 N/A
4:15 am 04:15 Clear 51 10.5 48 9 91 91 Calm 29.80 1009 10 16 N/A
4:35 am 04:35 Clear 50 10.1 48 8.7 91 91 Calm 29.80 1009 10 16 N/A
4:55 am 04:55 Clear 50 10 47 8.3 89 89 W 5 7 29.80 1009 10 16 N/A
5:15 am 05:15 Clear 51 10.3 47 8.3 88 88 WSW 5 7 29.80 1009 10 16 N/A
5:35 am 05:35 Clear 49 9.7 46 7.8 88 88 WSW 3 6 29.77 1008 10 16 N/A
5:55 am 05:55 Clear 49 9.7 45 7.3 85 85 SW 3 6 29.77 1008 10 16 N/A
6:15 am 06:15 Clear 50 9.8 46 7.7 87 87 SW 5 7 29.77 1008 10 16 N/A
6:35 am 06:35 Clear 49 9.5 46 7.6 88 88 SW 5 7 29.77 1008 10 16 N/A
6:55 am 06:55 Clear 50 10.1 46 8 87 87 W 5 7 29.77 1008 10 16 N/A
7:15 am 07:15 Clear 49 9.6 46 7.6 87 87 W 6 9 29.77 1008 10 16 N/A
7:35 am 07:35 Clear 48 8.8 45 7.1 89 89 WSW 5 7 29.77 1008 10 16 N/A
7:55 am 07:55 Sunny 48 9 45 7.2 89 89 W 3 6 29.77 1008 10 16 N/A
8:15 am 08:15 Sunny 48 8.9 45 7.4 90 90 NW 3 6 29.77 1008 10 16 N/A
8:35 am 08:35 Sunny 48 8.7 45 7.4 92 92 WNW 3 6 29.77 1008 10 16 N/A
8:55 am 08:55 Sunny 51 10.7 49 9.6 93 93 NW 3 6 29.74 1007 10 16 N/A
9:15 am 09:15 Sunny 55 12.5 51 10.6 88 88 Calm 29.74 1007 10 16 N/A
9:35 am 09:35 Sunny 58 14.2 52 11.2 82 82 WNW 3 6 29.74 1007 10 16 N/A
9:55 am 09:55 Sunny 61 16 52 11.1 73 73 W 3 6 29.71 1006 10 16 N/A
10:15 am 10:15 Sunny 63 17.3 50 10.2 63 63 W 7 11 29.71 1006 10 16 N/A
10:35 am 10:35 Sunny 66 19.1 51 10.7 58 58 W 5 7 29.68 1005 10 16 N/A
10:55 am 10:55 Sunny 71 21.5 49 9.5 46 46 W 5 7 29.62 1003 10 16 N/A
11:15 am 11:15 Sunny 74 23.3 51 10.4 44 44 WNW 6 9 29.62 1003 10 16 N/A
11:35 am 11:35 Sunny 78 25.5 49 9.7 37 37 Calm 29.59 1002 10 16 N/A
11:55 am 11:55 Sunny 80 26.9 51 10.8 37 37 W 7 11 29.59 1002 10 16 N/A
12:15 pm 12:15 Sunny 85 29.3 48 8.8 28 28 W 6 9 29.53 1000 10 16 N/A
12:35 pm 12:35 Sunny 88 31.1 48 9.1 25 25 WSW 6 9 29.53 1000 10 16 N/A
12:55 pm 12:55 Sunny 90 32 45 7.3 21 21 SW 3 6 29.50 999 10 16 N/A
1:15 pm 13:15 Sunny 91 33 45 7.3 20 20 WSW 8 13 29.50 999 10 16 N/A
1:55 pm 13:55 Sunny 92 33.5 44 6.5 19 19 WSW 10 17 29.50 999 10 16 N/A
2:15 pm 14:15 Sunny 92 33.4 47 8.4 21 21 WNW 9 15 29.47 998 10 16 N/A
2:35 pm 14:35 Sunny 94 34.2 43 6 17 17 W 14 22 29.47 998 10 16 N/A
2:55 pm 14:55 Sunny 94 34.6 41 5.2 16 16 WSW 10 17 29.44 997 10 16 N/A
3:15 pm 15:15 Sunny 94 34.7 37 2.6 13 13 WSW 13 20 29.44 997 10 16 N/A
3:35 pm 15:35 Sunny 95 34.8 39 3.9 14 14 SW 16 26 29.44 997 10 16 N/A
3:55 pm 15:55 Sunny 94 34.3 40 4.6 15 15 SW 13 20 29.44 997 10 16 N/A
4:15 pm 16:15 Sunny 93 34 41 4.9 16 16 SSW 15 24 29.44 997 10 16 N/A
4:35 pm 16:35 Sunny 94 34.5 40 4.3 15 15 SW 9 15 29.41 996 10 16 N/A
4:55 pm 16:55 Sunny 92 33.6 43 6.3 18 18 W 12 19 29.44 997 10 16 N/A
5:15 pm 17:15 Sunny 92 33.6 43 6 18 18 W 13 20 29.44 997 10 16 N/A
5:35 pm 17:35 Sunny 90 32 48 8.8 24 24 W 7 11 29.44 997 10 16 N/A
5:55 pm 17:55 Sunny 91 32.5 45 7 20 20 W 7 11 29.44 997 10 16 N/A
6:15 pm 18:15 Sunny 89 31.4 45 7.3 22 22 W 7 11 29.44 997 10 16 N/A
6:35 pm 18:35 Sunny 84 28.9 49 9.2 29 29 W 7 11 29.47 998 10 16 N/A
6:55 pm 18:55 Sunny 82 27.6 46 7.9 29 29 WSW 5 7 29.47 998 10 16 N/A
7:15 pm 19:15 Clear 78 25.6 46 7.5 32 32 WSW 6 9 29.50 999 10 16 N/A
7:35 pm 19:35 Clear 75 24.1 46 7.7 35 35 W 18 30 29.53 1000 10 16 N/A
7:55 pm 19:55 Clear 75 24.1 45 7.2 34 34 NNW 12 19 29.56 1001 10 16 N/A
8:15 pm 20:15 Clear 73 22.8 45 7 36 36 N 10 17 29.59 1002 10 16 N/A
8:35 pm 20:35 Clear 74 23.1 42 5.5 32 32 N 8 13 29.59 1002 10 16 N/A
8:55 pm 20:55 Clear 74 23.4 43 6 33 33 N 15 24 29.62 1003 10 16 N/A
9:15 pm 21:15 Clear 73 22.5 43 6 34 34 N 16 26 29.62 1003 10 16 N/A
9:35 pm 21:35 Clear 71 21.7 41 5.1 34 34 N 14 22 29.65 1004 10 16 N/A
9:55 pm 21:55 Clear 69 20.7 42 5.5 37 37 N 9 15 29.65 1004 10 16 N/A
10:15 pm 22:15 Clear 66 19 42 5.6 42 42 N 5 7 29.71 1006 10 16 N/A
10:35 pm 22:35 Clear 65 18.1 42 5.6 44 44 Calm 29.77 1008 10 16 N/A
10:55 pm 22:55 Clear 62 16.8 43 6 49 49 N 7 11 29.77 1008 10 16 N/A
11:15 pm 23:15 Clear 62 16.7 43 6.1 50 50 NNW 5 7 29.77 1008 10 16 N/A
11:35 pm 23:35 Clear 62 16.4 43 6.2 51 51 NNW 5 7 29.80 1009 10 16 N/A
11:55 pm 23:55 Clear 60 15.4 44 6.7 56 56 NNW 7 11 29.85 1011 10 16 N/A

Powered by AerisWeather